Location: Tel Aviv
(32.0670°N, 34.7670°E)
Time: 19:27:34
(UTC+03:00)

Transit 2A - Pass Details

Date: 07 June 2024
Orbit: 593 x 959 km, 66.7° (Epoch: 14 June)

Event Time Altitude Azimuth Distance (km) Brightness Sun altitude
Rises 03:55:36 0° 345° (NNW) 3,518 9.8 -17.9°
Reaches altitude 10° 03:58:21 10° 355° (N) 2,616 9.2 -17.5°
Maximum altitude 04:03:51 33° 58° (ENE) 1,545 8.3 -16.6°
Drops below altitude 10° 04:09:27 10° 120° (ESE) 2,683 9.0 -15.7°
Sets 04:12:17 0° 130° (SE) 3,620 9.6 -15.3°
